www.pogodaiklimat.ru

Погода и климат >> Архив погоды >> Россия >> Якутия >> Джалинда


ПОГОДА в Джалинде

  • Прогноз погоды в Джалинде
  • Монитор погоды в Джалинде
  • Климат города

АРХИВ ПОГОДЫ в Джалинде

Время (UTC), дата Ветер
(напр.,м/с)
 
Видим.   Явления Облачность Т
(С)
Тd
(С)
f
(%)
Тe
(С)
Тes
(С)
Комфортность P
(гПа)
Po
(гПа)
Тmin
(С)
Tmax
(С)
R
(мм)
R24
(мм)
S
(см)
00 12.01 Ю 3 50 км ясно -45.0 -46.7 83 -58 -58 опасность
обморожения
1018.1 1008.7 -48.7 24
03 12.01 ЮВ 3 50 км 9/9 600 м
[Sc]
-42.3 -43.8 85 -54 -54 опасность
обморожения
1016.1 1006.7
06 12.01 ЮВ 1 50 км 9/9 600 м
[Sc]
-40.0 -41.6 85 -45 -45 опасность
обморожения
1014.5 1005.3
09 12.01 Ю 1 50 км 3/0
[Ci sp]
-39.7 -41.1 86 -45 -45 опасность
обморожения
1015.5 1006.3
12 12.01 Ю 1 50 км ясно -40.3 -42.1 83 -46 -46 опасность
обморожения
1014.2 1005.0 -39.7
15 12.01 штиль 0 50 км ясно -41.0 -42.6 84 -41 -41 опасность
обморожения
1013.0 1004.1
18 12.01 штиль 0 50 км ясно -41.3 -42.6 87 -41 -41 опасность
обморожения
1012.5 1003.4
21 12.01 штиль 0 50 км ясно -41.9 -43.2 87 -42 -42 опасность
обморожения
1012.3 1003.0
00 13.01 ЮВ 1 50 км ясно -43.4 -45.1 83 -49 -49 опасность
обморожения
1011.6 1002.3 -43.1 24
03 13.01 ЮВ 1 50 км ясно -43.7 -45.1 86 -49 -49 опасность
обморожения
1011.1 1001.8
06 13.01 штиль 0 50 км ясно -44.3 -45.9 84 -44 -44 опасность
обморожения
1009.6 1000.3
09 13.01 штиль 0 50 км ясно -44.3 -45.1 92 -44 -44 опасность
обморожения
1009.8 1000.5
12 13.01 штиль 0 50 км ясно -44.3 -45.9 84 -44 -44 опасность
обморожения
1009.4 1000.1 -43.7
15 13.01 штиль 0 50 км ясно -44.6 -45.9 87 -45 -45 опасность
обморожения
1009.6 1000.3
18 13.01 штиль 0 50 км ясно -44.9 -46.7 82 -45 -45 опасность
обморожения
1009.4 1000.1
21 13.01 штиль 0 50 км ясно -43.6 -45.1 85 -44 -44 опасность
обморожения
1009.9 1000.6
00 14.01 штиль 0 50 км ясно -43.7 -45.1 86 -44 -44 опасность
обморожения
1011.0 1001.7 -44.9 24
03 14.01 штиль 0 50 км ясно -45.3 -47.5 78 -45 -45 опасность
обморожения
1010.7 1001.4
06 14.01 штиль 0 50 км ясно -49.3 -50.7 85 -49 -49 опасность
обморожения
1011.6 1002.1
09 14.01 штиль 0 50 км ясно -49.0 -50.7 82 -49 -49 опасность
обморожения
1012.0 1002.5
12 14.01 штиль 0 50 км ясно -48.7 -50.7 79 -49 -49 опасность
обморожения
1012.6 1003.1 -45.9
15 14.01 штиль 0 50 км ясно -48.7 -50.7 79 -49 -49 опасность
обморожения
1013.0 1003.5
18 14.01 штиль 0 50 км ясно -49.0 -50.7 82 -49 -49 опасность
обморожения
1013.3 1003.8
21 14.01 штиль 0 50 км ясно -51.4 -54.1 73 -51 -51 опасность
обморожения
1012.0 1002.5
00 15.01 штиль 0 50 км ясно -52.0 -54.1 78 -52 -52 опасность
обморожения
1011.5 1001.8 -52.0 25
03 15.01 штиль 0 50 км ясно -52.0 -54.1 78 -52 -52 опасность
обморожения
1011.0 1001.3
06 15.01 штиль 0 50 км 4/0
[Ci sp]
-52.2 -54.1 80 -52 -52 опасность
обморожения
1010.4 1000.7
09 15.01 штиль 0 50 км ясно -51.4 -54.1 73 -51 -51 опасность
обморожения
1012.4 1002.9
12 15.01 штиль 0 50 км ясно -51.3 -52.5 87 -51 -51 опасность
обморожения
1012.1 1002.6 -51.2
15 15.01 штиль 0 50 км ясно -51.6 -54.1 74 -52 -52 опасность
обморожения
1012.2 1002.5
18 15.01 штиль 0 50 км ясно -51.9 -54.1 77 -52 -52 опасность
обморожения
1011.9 1002.2
21 15.01 штиль 0 50 км ясно -52.0 -54.1 78 -52 -52 опасность
обморожения
1011.9 1002.2
00 16.01 штиль 0 50 км ясно -51.7 -54.1 75 -52 -52 опасность
обморожения
1013.9 1004.2 -52.0 24
03 16.01 штиль 0 50 км ясно -51.7 -54.1 75 -52 -52 опасность
обморожения
1014.3 1004.6
06 16.01 штиль 0 50 км ясно -51.9 -54.1 77 -52 -52 опасность
обморожения
1014.3 1005.3
09 16.01 штиль 0 50 км ясно -52.0 -54.1 78 -52 -52 опасность
обморожения
1016.0 1006.2
12 16.01 штиль 0 50 км ясно -52.4 -54.1 82 -52 -52 опасность
обморожения
1017.1 1007.3 -51.7
15 16.01 штиль 0 50 км ясно -52.4 -54.1 82 -52 -52 опасность
обморожения
1017.3 1007.5
18 16.01 штиль 0 50 км ясно -52.6 -54.1 84 -53 -53 опасность
обморожения
1017.3 1007.5
21 16.01 штиль 0 50 км ясно -51.9 -54.1 77 -52 -52 опасность
обморожения
1018.9 1009.1
00 17.01 штиль 0 50 км ясно -51.6 -54.1 74 -52 -52 опасность
обморожения
1022.5 1012.7 -52.6 24
03 17.01 штиль 0 50 км ясно -52.6 -54.1 84 -53 -53 опасность
обморожения
1023.2 1013.4
06 17.01 штиль 0 50 км ясно -53.9 -55.9 78 -54 -54 опасность
обморожения
1025.1 1015.2
09 17.01 штиль 0 50 км ясно -54.4 -55.9 83 -54 -54 опасность
обморожения
1026.6 1017.0
12 17.01 штиль 0 50 км ясно -52.7 -54.1 85 -53 -53 опасность
обморожения
1027.4 1017.5 -52.6
15 17.01 штиль 0 50 км ясно -52.3 -54.1 81 -52 -52 опасность
обморожения
1027.5 1017.6
18 17.01 штиль 0 50 км ясно -52.2 -54.1 80 -52 -52 опасность
обморожения
1027.8 1017.9
21 17.01 штиль 0 50 км ясно -52.5 -54.1 83 -53 -53 опасность
обморожения
1029.0 1019.1
00 18.01 штиль 0 50 км ясно -52.9 -55.1 77 -53 -53 опасность
обморожения
1029.9 1020.0 -52.9 24
03 18.01 штиль 0 50 км ясно -53.0 -54.1 88 -53 -53 опасность
обморожения
1030.9 1021.0
06 18.01 штиль 0 50 км ясно -52.7 -54.1 85 1032.5 1023.2
09 18.01 штиль 0 50 км ясно -54.0 -55.9 79 -54 -54 опасность
обморожения
1035.4 1025.4
12 18.01 штиль 0 50 км ясно -53.8 -55.9 77 -54 -54 опасность
обморожения
1036.2 1026.2 -52.7
15 18.01 штиль 0 50 км ясно -53.7 -55.9 77 -54 -54 опасность
обморожения
1036.8 1026.8
18 18.01 штиль 0 50 км ясно -53.5 -55.9 75 -54 -54 опасность
обморожения
1037.5 1027.5
21 18.01 штиль 0 50 км ясно -53.8 -55.9 77 -54 -54 опасность
обморожения
1037.9 1027.9

 

Местоположение метеостанции Джалинда (Якутия, Россия): широта 70.13 долгота 113.90 высота над уровнем моря 62 м.

В архиве по умолчанию представлена погода в Джалинде за последнюю неделю. Архивные данные за месяц целиком и за предыдущие месяцы, начиная с января 2011 года, Вы можете получить, выбрав интересующий диапазон дат из раскрывающегося списка и нажав кнопку "Ввод!".

Внимание! Время в таблицах - всемирное. Для получения местного времени необходимо прибавить поправку, которая в Джалинде равна 9 ч.

Смотрите также архив погоды в соседних городах и на ближайших метеорологических станциях:

Погода в Оленеке (Якутия, Россия) (191 км)
Погода в Саскылахе (Якутия, Россия) (205 км)
Погода в Сухане (Якутия, Россия) (241 км)
Погода в Анабаре (Якутия, Россия) (344 км)
Погода в Усть-Оленеке (Якутия, Россия) (380 км)
Погода в Полярном (Якутия, Россия) (383 км)
Погода в Ярольине (Якутия, Россия) (399 км)
Погода в Тюмяти (Якутия, Россия) (400 км)
Погода в Джарджане (Якутия, Россия) (424 км)
Погода в Шелагонцах (Якутия, Россия) (432 км)

Пояснения к столбцам:

Ветер - указаны скорость ветра в м/с - средняя за 10 мин, порывы в срок и между сроками (в фигурных скобках) и направление, откуда дует ветер: С - северный, СВ - северо-восточный, В - восточный, ЮВ - юго-восточный, Ю - южный, ЮЗ - юго-западный, З - западный, СЗ - северо-западный.
Видимость - горизонтальная дальность видимости в метрах или километрах. При видимости от 1 до 10 км при отсутствии осадков обычно наблюдается дымка, при ухудшении видимости до 1 км и менее - туман. В сухую погоду видимость может ухудшаться дымом, пылью или мглою.
Явления - указаны атмосферные явления, наблюдавшиеся в срок или в последний час перед сроком; фигурными скобками обозначены явления, наблюдавшиеся между сроками (за 1-3 часа до срока); квадратными скобками обозначены град или гололедные отложения с указанием их диаметра в мм.
Облачность - указаны через наклонную черту общая и нижняя облачность в баллах и высота нижней границы облаков в метрах; квадратными скобками обозначены формы облаков: Ci - перистые, Cs - перисто-слоистые, Cc - перисто-кучевые, Ac - высококучевые, As - высокослоистые, Sc - слоисто-кучевые, Ns - слоисто-дождевые, Cu - кучевые, Cb - кучево-дождевые. Подробнее классификацию облаков см. в Атласе облаков (PDF).
T - Температура воздуха - температура, измеренная на высоте 2 м над землей.
Td - Температура точки росы - температура, при понижении до которой содержащийся в воздухе водяной пар достигнет насыщения.
f - Относительная влажность воздуха - влажноcть воздуха, измеренная на высоте 2 м над землей.
Te - Эффективная температура - температура, которую ощущает одетый по сезону человек в тени. Характеристика душности погоды. При расчете учитывается влияние влажности воздуха и скорости ветра на теплоощущения человека.
Tes - Эффективная температура на солнце - температура, которую ощущает человек, с поправкой на солнечный нагрев. Характеристика знойности погоды. Зависит от высоты солнца над горизонтом, облачности и скорости ветра. Ночью, в пасмурную погоду, а также при ветре 12 м/с и более поправка равна нулю.
P - Атмосферное давление - приведенное к уровню моря атмосферное давление.
Po - Атмосферное давление - измеренное на уровне метеостанции атмосферное давление.
Tmin - Минимальная температура - минимум температуры воздуха на высоте 2 м над землей.
Tmax - Максимальная температура - максимум температуры воздуха на высоте 2 м над землей.
R - Количество осадков - Количество выпавших осадков за период времени, мм. При наведении курсора мыши на число - период времени, за который выпало указанное количество осадков.
R24 - Количество осадков - Количество выпавших осадков за 24 часа, мм.
S - Снежный покров - Высота снежного покрова, см. При наведении курсора мыши на число - состояние снежного покрова и степень покрытия местности в баллах.